Погода в Шевченкове

Украина / Николаевская область     47°32′37″N   32°31′48″E
темп.,
°C
ветер,
м/с
пор.,
м/с
влажн.,
%
обл.,
%
осадки,
мм/ч
давл.,
гПа
погр.,
м
14 июня, пн
пн1400:00+16ююв478698 0.0 1007138
03:00+15ю379563 0.3 1008177
06:00+15юв269487 0.0 1008199
09:00+21юв686830 0.8 1009839
12:00+24ююв585084 1.6 10102089
15:00+21юз347292 2.3 1011180
18:00+20сз2377100 0.3 101087
21:00+18ссз238822 1.9 101154
15 июня, вт
вт1500:00+17св118617 0.1 101211
03:00+16всв33875 0.1 101133
06:00+16ссв47877 0.0 1012140
09:00+23св68655 0.0 1011530
12:00+27всв674624 0.0 10102362
15:00+25св6952100 0.0 1009405
18:00+20ссв3571100 0.6 1009110
21:00+18ссз1191100 1.4 101014
16 июня, ср
ср1600:00+18ссв3690100 0.3 1009147
03:00+17св2391100 0.4 100950
06:00+17вюв119090 0.8 101026
09:00+22всв337295 0.8 1010593
12:00+25в345597 1.9 10101387
15:00+27всв3447100 2.3 10092251
18:00+18ю81093100 21.8 1010411
21:00+16всв2398100 38.4 1012111
17 июня, чт
чт1700:00+17ссз3495100 6.2 1011118
03:00+17ссв249416 6.2 101187
06:00+17ссв3694100 0.1 1012185
09:00+21св5581100 0.1 1013715
12:00+23всв6872100 0.2 10141183
15:00+25всв5663100 0.4 10141438
18:00+22св5783100 2.5 1014356
21:00+19всв31195100 26.8 1015617
18 июня, пт
пт1800:00+18св71294100 0.3 1015434
03:00+18св5996100 0.6 1016338
06:00+18всв5996100 0.2 1016450
09:00+20всв7108796 0.7 1017694
12:00+22всв887989 0.6 1018935
15:00+22всв687692 1.0 1018883
18:00+22всв6979100 0.4 1018612
21:00+19в51191100 1.9 1019338